GFSNE_850_temp_000.txt.gz
Temp
0 1 1 1 2 1 1 1 2 2 3 4 3 4 4 4 5 6 7 7 8 9 9 9 8 8 8 8 7 7 7 6 5 5 4 4 4 5
-0 0 0 0 1 1 1 0 1 1 2 3 3 3 2 3 4 4 6 6 7 8 9 9 9 8 8 7 7 7 6 6 6 5 4 4 4 4
-1 -1 -0 -0 -0 0 0 0 0 1 1 1 2 2 2 2 2 3 4 4 6 7 8 8 8 8 8 7 7 7 6 6 6 5 4 4 4 4
-3 -2 -1 -1 -1 -1 -1 -0 -0 -0 0 1 1 1 0 2 3 4 3 3 4 6 6 7 8 7 8 7 7 6 6 6 6 5 4 3 3 4
-4 -3 -3 -2 -2 -2 -1 -1 -1 -1 -0 -0 1 1 1 -0 1 2 1 2 2 4 6 6 7 7 7 7 7 6 6 6 5 4 3 3 3 4
-6 -6 -5 -5 -4 -3 -2 -2 -2 -1 -1 -0 0 1 1 0 -0 1 1 1 1 3 4 5 6 6 6 6 6 6 5 5 4 4 3 2 2 2
-8 -7 -7 -7 -6 -6 -5 -4 -3 -2 -2 -1 -0 0 1 0 -1 -1 -0 1 1 3 3 4 4 4 4 4 4 5 5 4 4 3 2 1 1 2
-9 -8 -8 -7 -7 -7 -6 -5 -5 -4 -4 -2 -1 -0 1 1 -1 -1 -1 0 1 2 3 3 3 4 3 4 4 4 2 3 2 2 1 1 1 2
-9 -8 -8 -7 -7 -7 -7 -7 -6 -6 -5 -4 -3 -1 0 1 1 -1 -1 -1 0 1 2 1 1 1 2 4 4 3 3 1 1 1 1 -0 1 2
-9 -9 -8 -8 -8 -7 -7 -7 -7 -6 -6 -6 -4 -3 -0 1 1 -1 -1 -1 -1 -0 1 -0 -0 -1 -0 2 2 2 1 0 1 0 0 -1 1 1
-9 -8 -8 -8 -8 -8 -8 -8 -7 -7 -6 -6 -5 -4 -3 -2 -1 -1 -2 -2 -1 -1 -2 -1 -2 -2 -3 -3 -1 -1 -1 -0 -1 -2 -4 -3 -2 -1
-8 -8 -8 -8 -7 -8 -8 -8 -7 -7 -6 -6 -5 -5 -5 -3 -2 -2 -1 -2 -2 -3 -2 -2 -3 -3 -5 -6 -5 -4 -3 -6 -7 -7 -4 -3 -4 -3
-8 -7 -7 -7 -7 -7 -7 -7 -7 -7 -6 -6 -6 -6 -5 -5 -4 -3 -2 -2 -1 -2 -1 -3 -3 -4 -5 -7 -7 -7 -7 -7 -7 -8 -6 -6 -6 -6
-8 -8 -7 -7 -7 -7 -7 -7 -7 -7 -7 -6 -6 -6 -5 -5 -4 -4 -3 -2 -2 -2 -2 -2 -1 -2 -3 -7 -8 -8 -8 -8 -8 -8 -7 -7 -6 -7
-8 -8 -8 -8 -7 -6 -7 -7 -7 -7 -7 -6 -5 -5 -5 -5 -5 -4 -3 -3 -3 -2 -2 -2 -3 -2 -3 -5 -6 -8 -9 -9 -9 -10 -10 -8 -6 -6
-9 -9 -9 -8 -7 -6 -6 -6 -7 -7 -7 -6 -6 -5 -5 -5 -5 -4 -4 -4 -3 -4 -4 -3 -3 -4 -5 -6 -6 -9 -10 -10 -10 -11 -10 -8 -9 -8
-9 -9 -9 -8 -8 -7 -6 -7 -7 -7 -7 -6 -5 -5 -5 -5 -4 -4 -4 -4 -3 -5 -6 -6 -7 -7 -7 -7 -8 -8 -9 -9 -9 -9 -9 -9 -9 -9
-9 -9 -9 -9 -9 -9 -7 -6 -7 -7 -6 -6 -6 -6 -5 -5 -5 -5 -4 -4 -4 -6 -7 -8 -9 -9 -9 -9 -8 -9 -10 -11 -11 -10 -9 -10 -11 -11
-9 -10 -10 -10 -10 -10 -9 -9 -8 -7 -7 -7 -6 -6 -6 -6 -6 -7 -7 -7 -7 -8 -9 -9 -9 -10 -10 -10 -11 -11 -11 -12 -11 -9 -10 -11 -11 -12
-9 -10 -10 -10 -11 -11 -11 -10 -10 -9 -8 -8 -8 -8 -8 -8 -9 -9 -9 -9 -9 -10 -10 -10 -10 -10 -9 -11 -10 -11 -12 -12 -10 -11 -11 -12 -12 -12
-10 -10 -10 -11 -11 -11 -11 -11 -11 -11 -10 -10 -10 -10 -10 -10 -10 -10 -10 -10 -10 -11 -11 -11 -11 -10 -9 -8 -9 -11 -11 -10 -13 -13 -13 -13 -12 -12
-10 -10 -10 -9 -10 -11 -11 -11 -11 -11 -11 -11 -11 -11 -11 -10 -10 -10 -10 -10 -11 -11 -12 -12 -11 -10 -10 -10 -10 -11 -12 -11 -11 -12 -11 -10 -13 -12
-10 -10 -10 -11 -10 -10 -10 -10 -10 -11 -11 -10 -10 -10 -9 -9 -10 -11 -11 -12 -12 -12 -13 -13 -12 -12 -12 -11 -11 -13 -12 -13 -13 -12 -12 -11 -12 -12

GFSNE_850_temp_003.txt.gz
Temp
0 1 1 1 2 2 3 3 4 4 4 4 5 6 5 5 6 6 6 6 7 7 7 8 8 8 9 8 8 8 8 8 8 7 7 6 5 5
-1 -0 -0 0 1 1 2 2 2 3 3 3 3 4 5 4 4 5 5 5 6 7 7 7 8 8 8 8 8 7 7 7 7 7 6 6 5 4
-2 -1 -1 -1 -0 0 0 0 0 1 2 2 2 3 3 4 3 3 3 4 5 4 6 6 7 8 8 8 8 8 7 7 7 6 6 6 5 5
-2 -2 -2 -1 -1 -0 -0 -0 -0 0 1 1 2 2 2 3 3 2 1 3 4 3 4 5 6 7 7 8 8 8 7 6 5 5 6 5 5 5
-3 -3 -3 -3 -2 -2 -1 -1 -1 -0 0 0 1 1 1 2 3 2 1 1 4 2 3 2 4 6 7 7 7 7 7 6 6 6 6 5 5 5
-5 -5 -5 -5 -4 -4 -3 -3 -2 -1 -1 -0 0 0 1 1 2 2 1 1 1 2 4 3 3 4 5 6 7 7 7 6 6 6 6 5 4 4
-7 -7 -7 -7 -7 -6 -6 -5 -4 -3 -2 -1 -1 -1 -0 0 1 2 -0 -1 0 0 -0 2 2 2 4 5 6 6 6 6 6 5 6 5 4 3
-9 -9 -8 -8 -8 -7 -7 -7 -7 -6 -5 -4 -3 -1 -1 -0 1 1 0 -1 -1 0 0 0 3 1 1 4 5 5 6 6 5 5 5 4 3 3
-9 -9 -8 -8 -8 -7 -7 -7 -7 -6 -6 -5 -5 -4 -2 -1 0 1 0 -0 -2 -1 0 1 1 2 0 2 4 4 5 5 5 5 4 4 1 3
-9 -9 -8 -8 -8 -7 -7 -7 -7 -6 -6 -6 -6 -5 -4 -3 -2 -2 -0 -1 -1 -2 -1 0 -0 1 2 0 1 3 3 4 5 4 1 1 2 1
-9 -9 -8 -8 -8 -8 -8 -7 -7 -7 -6 -6 -6 -6 -5 -2 -2 -3 -2 -1 -2 -2 -2 -1 -1 -0 -1 -0 -1 -2 1 3 4 0 1 1 0 0
-7 -7 -7 -7 -7 -7 -8 -8 -8 -7 -7 -7 -6 -6 -5 -4 -2 -4 -4 -2 -2 -2 -2 -2 -1 -2 -4 -4 -2 -3 -2 -1 -0 -0 -0 -0 -0 -0
-8 -8 -7 -7 -7 -7 -7 -7 -7 -7 -7 -7 -6 -6 -5 -4 -3 -4 -4 -3 -2 -2 -2 -2 -2 -3 -3 -5 -5 -4 -3 -4 -3 -3 -1 -1 -1 -4
-8 -8 -8 -8 -8 -7 -7 -7 -7 -7 -7 -7 -6 -6 -5 -5 -5 -4 -4 -3 -2 -3 -3 -2 -2 -2 -3 -5 -6 -7 -5 -5 -5 -5 -6 -5 -7 -8
-8 -8 -8 -8 -8 -8 -7 -7 -7 -7 -7 -7 -6 -6 -5 -5 -4 -4 -4 -4 -3 -3 -3 -2 -2 -2 -3 -3 -3 -6 -8 -7 -6 -5 -7 -8 -9 -9
-9 -8 -8 -8 -8 -7 -6 -6 -6 -7 -7 -7 -7 -6 -5 -5 -5 -4 -4 -4 -4 -3 -4 -3 -3 -3 -4 -4 -4 -6 -7 -7 -8 -8 -8 -9 -9 -9
-8 -8 -8 -8 -8 -7 -6 -6 -7 -7 -7 -7 -6 -6 -5 -5 -5 -5 -5 -5 -4 -5 -4 -5 -5 -5 -5 -5 -6 -7 -8 -8 -9 -9 -9 -9 -8 -8
-8 -9 -9 -9 -9 -8 -6 -6 -6 -7 -7 -6 -5 -5 -5 -5 -5 -5 -5 -5 -5 -5 -5 -6 -6 -7 -7 -8 -8 -7 -8 -9 -9 -9 -9 -8 -8 -8
-9 -9 -9 -9 -9 -9 -8 -7 -6 -6 -6 -6 -6 -6 -6 -6 -5 -6 -6 -6 -6 -5 -6 -7 -7 -7 -8 -9 -10 -10 -9 -10 -9 -10 -9 -9 -9 -10
-9 -9 -10 -10 -10 -10 -10 -9 -8 -7 -6 -6 -6 -6 -7 -7 -6 -7 -7 -7 -7 -8 -8 -9 -8 -8 -8 -10 -10 -10 -10 -10 -10 -9 -10 -11 -11 -11
-9 -9 -10 -10 -10 -10 -11 -10 -9 -9 -9 -8 -8 -8 -8 -8 -8 -8 -8 -8 -8 -9 -10 -10 -9 -9 -8 -9 -9 -11 -11 -11 -11 -11 -12 -11 -12 -11
-10 -10 -10 -10 -10 -10 -10 -11 -10 -10 -10 -10 -9 -9 -9 -9 -9 -9 -9 -10 -10 -10 -10 -10 -10 -9 -9 -9 -10 -11 -12 -12 -12 -12 -12 -11 -12 -12
-10 -10 -10 -10 -10 -10 -11 -11 -11 -11 -11 -10 -10 -10 -10 -10 -10 -10 -10 -10 -10 -11 -11 -11 -10 -11 -11 -11 -11 -12 -12 -12 -12 -12 -11 -11 -11 -10

GFSNE_850_temp_006.txt.gz
Temp
-1 -1 -0 -0 0 1 1 1 1 2 2 3 3 4 4 4 4 5 5 5 6 6 6 7 7 8 8 8 9 8 8 7 7 7 7 6 6 6
-1 -1 -1 -1 -1 -0 -0 0 1 1 1 2 2 3 3 3 3 3 4 4 5 6 6 6 7 7 7 8 8 8 8 8 7 7 7 6 6 6
-2 -2 -2 -2 -2 -1 -1 -1 -1 -0 0 0 1 1 2 2 3 3 2 3 3 4 4 5 5 6 7 7 7 8 8 8 7 7 7 7 6 6
-3 -3 -3 -2 -2 -2 -2 -2 -1 -1 -0 -0 -0 -0 1 1 2 2 2 3 2 3 3 3 3 3 5 6 7 7 8 8 7 7 8 8 7 6
-3 -4 -4 -3 -3 -3 -3 -3 -2 -2 -2 -1 -1 -1 -0 1 1 1 2 2 1 1 2 3 4 3 3 5 4 7 7 7 7 7 6 7 7 7
-4 -4 -5 -5 -5 -5 -5 -4 -4 -4 -4 -3 -2 -1 -1 -0 0 1 1 1 1 2 2 2 2 3 3 3 3 4 6 7 7 6 6 5 5 5
-5 -5 -6 -6 -6 -6 -6 -6 -6 -6 -5 -5 -4 -3 -2 -1 -0 0 0 1 1 1 1 2 2 1 2 2 3 3 4 7 7 6 6 4 4 4
-7 -8 -8 -8 -8 -8 -8 -7 -7 -7 -7 -7 -6 -5 -4 -3 -1 -1 -0 0 0 1 0 1 1 1 -0 2 3 4 2 5 6 6 7 5 5 5
-8 -8 -9 -9 -8 -8 -8 -7 -7 -7 -7 -7 -7 -7 -6 -5 -3 -2 -1 -1 -1 -1 -0 0 -1 -1 -0 -0 1 2 4 3 5 6 6 6 5 5
-8 -8 -8 -8 -8 -8 -8 -8 -8 -7 -7 -7 -7 -6 -6 -6 -4 -3 -3 -2 -2 -1 -1 -1 -1 -1 -0 0 1 1 3 2 4 6 6 6 5 5
-7 -7 -7 -7 -7 -7 -8 -8 -8 -7 -7 -7 -7 -6 -6 -6 -5 -4 -4 -4 -3 -2 -1 -1 -2 -2 -1 -0 -0 1 3 2 3 5 6 5 5 5
-8 -8 -8 -8 -8 -7 -7 -8 -8 -7 -7 -7 -7 -7 -6 -6 -6 -6 -5 -5 -4 -4 -2 -2 -2 -2 -3 -2 -1 -1 1 1 1 3 5 5 5 3
-8 -8 -8 -8 -8 -8 -7 -7 -7 -7 -7 -7 -7 -7 -7 -6 -6 -5 -6 -6 -4 -4 -3 -2 -1 -2 -3 -4 -3 -3 -2 -1 -1 -1 3 4 2 1
-9 -9 -8 -8 -8 -8 -8 -8 -7 -7 -7 -7 -7 -7 -7 -7 -6 -5 -5 -4 -4 -4 -3 -2 -2 -2 -3 -3 -5 -4 -3 -3 -2 -2 -1 -1 -1 -1
-9 -9 -8 -8 -8 -8 -8 -8 -8 -8 -8 -8 -7 -7 -6 -6 -6 -5 -5 -5 -4 -4 -4 -3 -3 -2 -2 -2 -2 -4 -5 -4 -3 -2 -2 -3 -3 -3
-8 -8 -8 -8 -8 -8 -7 -6 -6 -6 -7 -8 -7 -7 -6 -6 -6 -5 -5 -4 -4 -4 -4 -3 -2 -3 -3 -4 -3 -4 -4 -4 -5 -4 -4 -5 -5 -5
-8 -9 -9 -9 -9 -8 -6 -6 -6 -7 -7 -8 -7 -7 -7 -6 -5 -5 -5 -5 -5 -5 -5 -4 -3 -3 -4 -4 -5 -5 -5 -5 -5 -5 -5 -5 -6 -6
-9 -9 -10 -9 -9 -9 -7 -6 -7 -7 -7 -7 -7 -6 -6 -5 -5 -5 -5 -5 -5 -5 -5 -4 -3 -5 -6 -7 -6 -6 -7 -7 -7 -7 -7 -7 -8 -8
-9 -10 -10 -10 -10 -9 -8 -7 -6 -7 -7 -6 -6 -6 -6 -5 -5 -6 -6 -6 -6 -5 -5 -4 -5 -6 -6 -8 -9 -8 -6 -8 -8 -8 -8 -8 -8 -7
-9 -10 -10 -10 -10 -10 -9 -8 -8 -7 -6 -6 -6 -6 -6 -5 -5 -6 -7 -6 -6 -7 -6 -6 -7 -7 -6 -7 -9 -10 -9 -8 -8 -8 -9 -9 -9 -9
-10 -10 -10 -10 -10 -10 -10 -9 -9 -8 -8 -7 -6 -6 -7 -7 -7 -7 -7 -7 -7 -8 -8 -8 -8 -8 -7 -7 -8 -10 -10 -10 -9 -9 -10 -10 -10 -11
-11 -11 -10 -10 -10 -11 -11 -10 -10 -9 -9 -9 -8 -8 -8 -7 -7 -8 -8 -8 -8 -8 -8 -9 -9 -9 -8 -8 -9 -9 -10 -11 -11 -11 -11 -11 -11 -11
-11 -11 -11 -11 -11 -11 -11 -11 -10 -10 -10 -10 -10 -9 -9 -9 -9 -9 -9 -9 -9 -9 -9 -9 -9 -9 -9 -9 -9 -10 -11 -12 -12 -12 -12 -11 -11 -11

GFSNE_850_temp_009.txt.gz
Temp
-1 -1 -1 -1 -1 -1 -1 -1 -1 -1 -0 -0 0 1 2 2 3 3 4 4 4 4 5 5 6 6 6 7 7 8 8 7 7 8 7 7 7 7
-2 -2 -2 -2 -2 -2 -2 -2 -1 -1 -2 -1 -1 -0 0 1 2 2 3 3 3 3 3 4 5 6 5 6 7 7 8 8 8 8 8 7 7 7
-2 -3 -3 -3 -3 -2 -2 -2 -2 -2 -2 -2 -2 -1 -1 -0 0 1 2 2 3 3 3 3 3 4 3 4 6 6 7 8 8 9 8 7 7 7
-3 -3 -3 -3 -3 -3 -3 -3 -3 -3 -3 -3 -3 -2 -2 -1 -1 -0 1 1 2 2 2 3 2 2 3 3 4 5 6 6 7 8 8 8 7 7
-4 -4 -4 -4 -4 -4 -4 -4 -4 -4 -4 -4 -4 -4 -3 -2 -2 -1 -0 0 1 1 2 2 2 2 2 2 3 5 4 6 6 8 8 8 7 7
-4 -5 -5 -5 -5 -5 -5 -5 -5 -5 -5 -5 -5 -5 -5 -4 -3 -2 -1 -0 0 1 1 1 1 1 2 2 3 3 5 4 4 6 7 7 7 7
-5 -5 -5 -5 -6 -6 -6 -6 -7 -7 -7 -7 -6 -6 -6 -5 -4 -3 -2 -1 -0 -0 0 0 1 1 1 1 2 2 3 2 3 4 5 7 7 7
-7 -7 -7 -7 -7 -7 -7 -7 -8 -8 -9 -8 -8 -7 -7 -6 -6 -4 -3 -2 -1 -1 -0 -0 0 0 1 1 2 2 3 3 2 2 3 5 7 6
-8 -8 -7 -7 -7 -7 -7 -7 -8 -8 -8 -8 -8 -8 -8 -7 -7 -6 -4 -4 -3 -2 -2 -1 -0 -0 0 1 1 2 2 2 2 2 3 4 6 7
-8 -7 -7 -7 -7 -7 -7 -7 -7 -7 -7 -8 -8 -7 -7 -7 -7 -7 -6 -5 -4 -3 -3 -2 -1 -0 -0 -0 -0 0 1 1 1 2 3 3 4 6
-8 -8 -8 -8 -8 -8 -8 -8 -8 -8 -7 -7 -7 -7 -7 -7 -7 -7 -7 -7 -6 -5 -4 -3 -3 -2 -1 -1 -1 -1 0 0 1 1 3 3 3 5
-9 -9 -9 -9 -8 -8 -8 -8 -8 -8 -7 -7 -7 -7 -7 -7 -7 -7 -6 -7 -7 -6 -5 -4 -3 -3 -2 -1 -1 -1 1 0 0 2 2 4 3 4
-9 -9 -9 -9 -9 -9 -8 -8 -8 -8 -8 -8 -7 -7 -7 -7 -7 -7 -7 -6 -6 -6 -5 -4 -4 -3 -3 -2 -2 -2 -1 -1 0 1 2 2 2 3
-9 -9 -8 -8 -8 -8 -8 -8 -8 -8 -8 -8 -8 -8 -7 -7 -7 -6 -6 -7 -7 -6 -6 -4 -4 -4 -3 -2 -2 -3 -1 -2 -2 -0 0 1 -1 1
-9 -9 -9 -8 -8 -8 -7 -7 -7 -7 -8 -8 -8 -8 -7 -7 -7 -7 -7 -7 -6 -6 -6 -5 -3 -4 -4 -3 -3 -3 -3 -3 -3 -2 -2 -1 -2 -2
-9 -9 -9 -9 -9 -9 -8 -7 -6 -6 -6 -7 -7 -7 -8 -7 -7 -7 -6 -6 -6 -6 -6 -5 -4 -4 -4 -4 -3 -3 -3 -4 -4 -3 -3 -2 -2 -3
-9 -9 -10 -10 -9 -8 -7 -6 -6 -7 -7 -7 -7 -8 -8 -7 -7 -6 -6 -5 -5 -5 -5 -5 -4 -4 -5 -4 -4 -4 -4 -5 -5 -5 -4 -5 -5 -4
-9 -10 -10 -10 -10 -9 -8 -7 -7 -7 -7 -7 -7 -7 -7 -7 -6 -6 -6 -5 -5 -5 -5 -5 -4 -5 -6 -6 -6 -5 -5 -6 -6 -5 -5 -5 -5 -5
-9 -10 -10 -10 -10 -10 -9 -8 -7 -7 -7 -7 -7 -7 -6 -6 -6 -5 -5 -5 -5 -5 -5 -5 -5 -4 -4 -5 -6 -6 -6 -6 -6 -7 -6 -6 -5 -6
-10 -10 -11 -11 -11 -10 -9 -9 -8 -7 -7 -6 -6 -6 -6 -6 -6 -5 -6 -5 -6 -6 -6 -6 -6 -5 -5 -4 -5 -7 -8 -8 -7 -8 -8 -7 -7 -7
-10 -11 -11 -11 -11 -11 -10 -10 -9 -8 -8 -7 -7 -7 -7 -7 -7 -7 -6 -6 -7 -6 -6 -6 -7 -6 -6 -6 -7 -8 -9 -9 -9 -8 -8 -8 -9 -9
-11 -11 -11 -11 -11 -11 -11 -10 -10 -9 -9 -9 -8 -7 -7 -7 -7 -7 -7 -7 -8 -7 -7 -7 -8 -8 -7 -7 -8 -8 -9 -10 -10 -10 -10 -9 -10 -10
-12 -11 -11 -11 -11 -11 -11 -11 -11 -11 -11 -10 -10 -9 -8 -8 -8 -8 -8 -8 -8 -8 -9 -9 -9 -9 -8 -8 -8 -9 -10 -11 -11 -11 -11 -11 -11 -10

GFSNE_850_temp_012.txt.gz
Temp
-1 -1 -1 -2 -2 -2 -2 -2 -2 -3 -2 -2 -2 -1 -1 -1 0 1 2 2 2 3 3 4 4 4 4 5 6 7 8 8 8 7 8 8 7 7
-2 -2 -2 -2 -3 -3 -3 -3 -3 -3 -3 -3 -3 -2 -2 -2 -1 0 1 2 2 2 2 3 3 4 4 4 5 6 6 7 7 7 7 8 7 6
-2 -3 -3 -3 -3 -3 -3 -3 -3 -3 -4 -4 -4 -3 -3 -3 -2 -2 -1 1 1 1 2 2 2 2 3 4 4 4 5 6 7 6 7 7 8 6
-3 -4 -4 -4 -4 -4 -4 -4 -4 -4 -4 -5 -5 -4 -4 -4 -3 -3 -2 -1 -0 1 1 1 1 2 2 3 3 3 4 4 5 6 5 7 7 8
-4 -5 -5 -4 -5 -5 -5 -5 -5 -5 -5 -5 -5 -5 -5 -5 -4 -4 -3 -2 -2 -1 -0 1 1 1 2 2 2 3 3 3 4 5 6 6 7 7
-5 -5 -5 -5 -5 -5 -5 -6 -6 -6 -6 -6 -6 -7 -6 -6 -6 -5 -5 -4 -3 -2 -1 -0 0 1 1 1 2 2 2 2 3 4 4 5 6 7
-6 -6 -6 -7 -7 -7 -7 -7 -7 -7 -7 -7 -8 -8 -7 -7 -7 -6 -6 -5 -4 -2 -2 -1 -0 0 0 1 1 1 1 2 2 3 3 4 5 6
-7 -7 -8 -8 -7 -7 -7 -7 -7 -8 -8 -9 -9 -8 -8 -8 -8 -7 -6 -6 -5 -3 -2 -1 -1 -1 -0 0 0 1 1 1 2 2 3 4 4 6
-8 -8 -8 -8 -8 -8 -7 -7 -7 -7 -7 -8 -9 -9 -8 -8 -8 -8 -7 -7 -6 -4 -4 -4 -1 -1 -1 -1 -0 0 1 1 1 2 3 4 3 4
-9 -8 -8 -8 -8 -8 -9 -8 -8 -7 -7 -7 -8 -8 -8 -8 -8 -8 -8 -7 -7 -7 -6 -6 -4 -2 -1 -1 -1 -1 0 1 1 1 1 3 3 2
-9 -9 -9 -9 -8 -9 -9 -9 -9 -8 -7 -7 -8 -8 -8 -8 -8 -8 -8 -7 -7 -7 -6 -7 -6 -5 -3 -1 -1 -0 0 0 1 1 1 1 1 2
-9 -8 -8 -8 -9 -9 -9 -9 -9 -8 -8 -8 -8 -8 -8 -8 -8 -8 -7 -7 -7 -7 -6 -7 -6 -5 -4 -2 -1 -0 -0 -0 0 0 0 0 0 1
-9 -8 -8 -9 -9 -8 -8 -9 -9 -8 -8 -8 -8 -8 -8 -7 -7 -8 -7 -7 -7 -7 -6 -6 -6 -6 -4 -4 -1 -1 -1 -1 -0 -0 0 1 -0 0
-8 -9 -9 -9 -9 -9 -8 -8 -8 -8 -8 -8 -8 -8 -8 -7 -6 -7 -7 -7 -7 -7 -7 -6 -6 -5 -5 -4 -3 -2 -2 -2 -2 -0 0 1 0 1
-9 -9 -10 -10 -10 -9 -9 -8 -8 -8 -8 -8 -7 -7 -7 -7 -7 -7 -7 -7 -7 -7 -7 -7 -7 -6 -6 -5 -4 -4 -3 -2 -2 -2 -1 -2 -1 1
-9 -10 -10 -10 -9 -9 -8 -7 -7 -7 -7 -7 -7 -7 -7 -8 -8 -7 -7 -7 -7 -7 -7 -7 -6 -6 -6 -5 -4 -3 -4 -4 -3 -3 -3 -3 -2 -1
-9 -10 -10 -10 -9 -8 -8 -7 -7 -7 -7 -7 -7 -7 -8 -8 -8 -8 -7 -7 -7 -7 -6 -5 -6 -6 -6 -6 -4 -4 -3 -5 -4 -5 -5 -5 -4 -3
-10 -10 -11 -11 -10 -9 -8 -8 -7 -7 -7 -7 -7 -7 -7 -7 -7 -7 -7 -7 -6 -6 -6 -6 -6 -6 -6 -5 -4 -4 -4 -5 -6 -6 -6 -6 -6 -6
-10 -11 -11 -11 -11 -10 -9 -9 -8 -7 -7 -8 -7 -7 -7 -7 -6 -6 -6 -6 -6 -6 -6 -6 -6 -5 -5 -5 -5 -5 -5 -6 -7 -7 -7 -7 -7 -7
-11 -11 -11 -11 -11 -11 -10 -10 -9 -8 -8 -7 -7 -7 -6 -6 -6 -5 -6 -6 -6 -6 -6 -6 -5 -5 -5 -4 -5 -6 -6 -7 -8 -8 -8 -8 -7 -8
-11 -11 -11 -11 -11 -11 -10 -10 -10 -9 -9 -8 -7 -7 -7 -7 -7 -7 -7 -7 -6 -7 -6 -6 -7 -7 -7 -6 -6 -8 -9 -9 -9 -8 -8 -8 -8 -9
-12 -11 -11 -11 -11 -11 -11 -10 -10 -10 -10 -9 -9 -8 -8 -7 -7 -7 -7 -8 -8 -8 -7 -8 -8 -8 -8 -7 -7 -8 -9 -10 -10 -9 -9 -9 -9 -10
-12 -12 -12 -11 -11 -11 -11 -11 -11 -11 -11 -10 -10 -9 -9 -8 -8 -8 -8 -8 -8 -9 -9 -9 -9 -9 -8 -8 -8 -9 -10 -10 -11 -10 -10 -10 -10 -10

GFSNE_850_temp_015.txt.gz
Temp
-1 -1 -1 -2 -2 -2 -2 -2 -3 -3 -3 -3 -3 -3 -3 -2 -2 -2 -0 -0 1 1 1 1 2 2 2 4 4 5 6 7 7 7 8 9 7 7
-2 -2 -2 -2 -3 -3 -3 -3 -3 -3 -4 -4 -4 -4 -3 -3 -3 -2 -2 -1 0 1 1 1 1 2 2 3 3 4 5 6 7 7 7 8 7 8
-2 -3 -3 -3 -3 -3 -4 -4 -4 -4 -4 -5 -5 -4 -4 -4 -4 -3 -3 -2 -1 -0 1 1 1 1 1 2 2 3 3 4 5 6 7 7 7 7
-3 -3 -4 -4 -4 -4 -5 -5 -5 -5 -5 -5 -5 -5 -5 -5 -5 -5 -4 -4 -3 -2 -1 -0 1 1 1 1 2 2 2 3 4 5 6 6 6 7
-4 -5 -5 -5 -5 -5 -5 -6 -6 -6 -6 -6 -6 -6 -6 -6 -5 -5 -5 -4 -3 -3 -2 -1 -1 -0 1 1 1 1 2 2 3 3 4 5 6 7
-5 -6 -6 -6 -6 -6 -6 -6 -6 -7 -7 -7 -7 -8 -7 -7 -7 -6 -6 -6 -5 -4 -3 -2 -1 -1 0 0 0 1 1 1 2 2 4 4 5 6
-6 -6 -7 -7 -7 -7 -8 -8 -8 -8 -8 -8 -8 -8 -8 -8 -8 -7 -7 -6 -6 -5 -4 -3 -2 -1 -1 -0 -0 0 1 1 1 2 2 4 4 5
-7 -7 -7 -8 -8 -8 -8 -8 -8 -8 -8 -9 -8 -8 -8 -8 -8 -8 -8 -8 -7 -7 -6 -4 -3 -2 -1 -1 -0 -0 0 0 0 1 1 2 3 5
-8 -8 -9 -9 -9 -8 -8 -8 -8 -8 -8 -9 -9 -9 -8 -8 -8 -8 -8 -8 -8 -7 -7 -5 -4 -3 -2 -1 -1 -1 -1 -0 -0 0 1 1 2 3
-9 -9 -9 -9 -8 -9 -10 -9 -9 -9 -9 -8 -8 -8 -8 -8 -8 -8 -8 -8 -8 -8 -7 -7 -6 -5 -3 -3 -2 -1 -1 -1 -0 0 1 1 1 2
-9 -9 -9 -8 -8 -8 -9 -9 -9 -8 -8 -9 -9 -8 -8 -8 -8 -8 -8 -8 -8 -7 -7 -7 -6 -6 -6 -3 -2 -2 -1 -1 -0 -0 0 1 1 2
-9 -8 -8 -9 -9 -9 -9 -9 -9 -8 -8 -9 -9 -8 -8 -8 -8 -8 -8 -8 -8 -8 -7 -7 -6 -7 -7 -3 -3 -3 -2 -1 -1 -1 -0 0 1 1
-9 -8 -9 -9 -9 -9 -9 -9 -9 -8 -8 -8 -9 -8 -8 -8 -8 -8 -8 -8 -8 -8 -7 -7 -6 -6 -6 -6 -5 -3 -2 -2 -2 -1 -1 -1 -0 -0
-9 -9 -9 -9 -10 -10 -9 -9 -9 -9 -8 -8 -8 -8 -8 -8 -8 -8 -8 -7 -8 -8 -7 -7 -7 -7 -6 -7 -6 -5 -4 -3 -3 -2 -1 -1 -0 -0
-9 -9 -10 -10 -10 -9 -9 -8 -8 -8 -8 -8 -8 -7 -7 -7 -8 -8 -8 -8 -7 -7 -7 -7 -7 -7 -7 -7 -6 -5 -5 -4 -4 -3 -3 -2 -1 -0
-9 -9 -10 -10 -10 -9 -8 -8 -7 -7 -7 -8 -8 -8 -8 -8 -8 -8 -8 -8 -8 -7 -7 -7 -7 -7 -7 -7 -7 -6 -5 -5 -4 -4 -3 -3 -3 -2
-10 -10 -10 -10 -10 -9 -8 -8 -7 -7 -7 -8 -8 -8 -8 -8 -8 -8 -8 -8 -8 -7 -7 -7 -7 -7 -7 -7 -7 -6 -6 -5 -5 -4 -5 -4 -4 -3
-10 -10 -11 -11 -11 -10 -9 -9 -8 -8 -8 -8 -8 -7 -8 -8 -8 -8 -8 -8 -7 -7 -7 -7 -7 -7 -7 -7 -7 -6 -6 -5 -4 -4 -5 -5 -6 -5
-10 -11 -11 -11 -11 -11 -10 -10 -9 -8 -8 -8 -8 -7 -7 -7 -7 -7 -7 -7 -7 -7 -7 -7 -7 -7 -7 -7 -6 -6 -6 -5 -6 -6 -6 -6 -7 -6
-11 -11 -11 -11 -11 -11 -11 -11 -10 -9 -8 -8 -7 -7 -7 -7 -7 -7 -7 -7 -6 -6 -6 -7 -7 -7 -7 -6 -7 -7 -6 -7 -7 -8 -7 -7 -8 -8
-12 -12 -12 -11 -11 -11 -11 -11 -11 -11 -10 -9 -8 -8 -7 -7 -8 -8 -8 -8 -7 -7 -7 -7 -7 -7 -7 -7 -7 -8 -9 -9 -9 -9 -8 -8 -8 -9
-12 -12 -12 -12 -12 -12 -11 -11 -11 -11 -10 -10 -10 -9 -9 -8 -8 -8 -8 -8 -9 -8 -8 -8 -8 -8 -8 -7 -8 -8 -10 -10 -9 -9 -9 -9 -9 -9
-12 -12 -12 -12 -12 -12 -12 -11 -11 -11 -11 -11 -11 -10 -10 -9 -9 -9 -9 -9 -9 -9 -8 -9 -9 -8 -8 -8 -9 -10 -10 -10 -10 -10 -10 -9 -9 -9

GFSNE_850_temp_021.txt.gz
Temp
-2 -3 -3 -4 -3 -4 -4 -4 -4 -3 -1 -1 -2 -2 -3 -3 -3 -3 -3 -2 -1 -1 -0 0 0 1 1 1 2 2 2 4 5 6 7 9 8 8
-3 -4 -4 -4 -3 -3 -4 -4 -4 -4 -3 -2 -3 -3 -4 -4 -4 -4 -4 -4 -3 -2 -1 -1 -0 0 0 1 1 2 2 2 4 4 5 7 7 7
-3 -3 -3 -3 -4 -4 -4 -5 -4 -4 -4 -4 -4 -4 -5 -5 -5 -4 -4 -5 -4 -3 -2 -2 -1 -1 -0 0 1 1 1 2 2 2 3 5 6 7
-3 -3 -4 -4 -5 -5 -6 -6 -6 -5 -5 -5 -5 -5 -5 -5 -5 -5 -5 -5 -5 -5 -3 -2 -2 -2 -1 -0 0 1 1 1 2 2 2 4 5 6
-4 -4 -5 -5 -6 -7 -7 -7 -7 -7 -6 -6 -6 -6 -6 -6 -6 -6 -6 -6 -5 -5 -4 -3 -2 -2 -2 -1 -1 0 1 1 1 2 2 2 3 5
-4 -5 -6 -7 -7 -8 -8 -8 -8 -8 -8 -7 -7 -7 -7 -7 -7 -7 -6 -6 -6 -6 -6 -5 -4 -3 -2 -2 -1 -1 0 1 1 1 2 2 3 3
-5 -6 -7 -7 -7 -7 -9 -8 -8 -8 -8 -9 -8 -8 -7 -7 -7 -7 -7 -7 -7 -7 -7 -7 -6 -6 -5 -3 -2 -1 -1 0 1 1 1 2 2 3
-8 -8 -8 -8 -8 -8 -8 -8 -9 -9 -9 -9 -8 -8 -8 -7 -8 -8 -8 -7 -7 -7 -7 -7 -7 -7 -6 -6 -5 -3 -2 -1 -0 0 -0 0 1 2
-9 -9 -9 -9 -9 -10 -9 -9 -9 -9 -10 -10 -9 -9 -9 -8 -8 -8 -8 -8 -8 -7 -7 -8 -8 -7 -7 -7 -6 -5 -4 -2 -1 -1 -0 -0 0 1
-9 -10 -10 -10 -9 -9 -9 -10 -10 -9 -9 -9 -9 -9 -9 -9 -8 -8 -8 -8 -8 -8 -8 -8 -8 -8 -8 -7 -6 -6 -5 -4 -2 -1 -1 -1 -0 0
-10 -10 -10 -10 -9 -9 -9 -9 -9 -9 -9 -9 -9 -9 -9 -9 -9 -9 -9 -9 -8 -8 -8 -8 -8 -8 -8 -8 -6 -5 -5 -5 -4 -2 -1 -1 -1 -0
-10 -10 -10 -9 -9 -9 -9 -10 -10 -10 -10 -10 -10 -9 -9 -9 -8 -8 -8 -8 -8 -8 -7 -8 -8 -7 -7 -7 -6 -5 -5 -4 -4 -3 -2 -1 -1 -1
-10 -10 -10 -10 -9 -10 -10 -10 -10 -9 -9 -9 -10 -9 -9 -8 -8 -8 -8 -8 -8 -8 -7 -8 -8 -7 -8 -7 -7 -6 -6 -4 -4 -4 -3 -2 -2 -1
-11 -10 -10 -10 -10 -10 -10 -10 -9 -8 -8 -8 -8 -8 -8 -8 -8 -8 -8 -8 -8 -8 -8 -8 -8 -8 -8 -7 -6 -7 -6 -6 -5 -5 -4 -3 -2 -2
-10 -10 -10 -10 -10 -10 -10 -9 -8 -8 -8 -8 -9 -9 -9 -8 -8 -8 -8 -8 -8 -8 -8 -8 -8 -8 -8 -8 -7 -7 -7 -6 -6 -5 -5 -4 -4 -3
-11 -11 -11 -11 -11 -11 -10 -9 -9 -9 -9 -9 -9 -9 -8 -8 -8 -8 -8 -8 -8 -8 -8 -8 -8 -8 -8 -8 -7 -7 -7 -7 -6 -6 -5 -5 -4 -4
-11 -11 -11 -11 -11 -11 -10 -10 -10 -9 -9 -8 -8 -8 -8 -8 -8 -8 -8 -8 -8 -8 -8 -8 -8 -7 -7 -7 -7 -8 -7 -7 -7 -7 -6 -5 -5 -4
-11 -11 -11 -11 -11 -12 -12 -11 -10 -10 -9 -9 -8 -8 -8 -8 -8 -7 -8 -8 -8 -8 -8 -7 -7 -7 -7 -7 -7 -8 -7 -7 -7 -6 -6 -5 -4 -4
-12 -12 -12 -12 -12 -12 -12 -12 -11 -11 -10 -9 -9 -8 -8 -8 -8 -8 -7 -8 -8 -8 -8 -7 -7 -7 -7 -7 -7 -7 -7 -7 -7 -7 -7 -6 -5 -5
-13 -13 -12 -12 -12 -12 -12 -12 -12 -11 -11 -10 -10 -9 -9 -9 -10 -8 -8 -8 -8 -7 -7 -7 -7 -8 -7 -7 -7 -7 -7 -8 -7 -7 -7 -6 -5 -5
-13 -13 -13 -13 -13 -12 -12 -12 -12 -12 -11 -11 -11 -10 -10 -9 -9 -9 -8 -9 -9 -9 -9 -8 -8 -8 -8 -8 -8 -8 -8 -8 -8 -8 -7 -7 -7 -7
-14 -14 -13 -13 -13 -13 -13 -12 -12 -12 -12 -12 -11 -11 -11 -10 -10 -9 -9 -9 -9 -9 -8 -8 -8 -9 -8 -8 -9 -9 -9 -9 -9 -9 -8 -8 -9 -9
-14 -14 -14 -13 -13 -13 -13 -13 -12 -12 -12 -12 -12 -12 -11 -11 -11 -10 -10 -10 -9 -10 -9 -9 -9 -9 -9 -9 -9 -9 -10 -10 -10 -10 -9 -9 -9 -9

GFSNE_850_temp_024.txt.gz
Temp
-3 -3 -3 -3 -3 -4 -4 -4 -4 -3 -1 1 1 1 0 -0 -1 -1 -2 -2 -2 -2 -0 -0 0 1 1 1 1 2 3 3 4 5 5 7 6 7
-3 -3 -3 -4 -4 -4 -4 -4 -4 -3 -2 -1 -0 -0 -1 -1 -1 -2 -2 -3 -3 -3 -2 -1 -1 -0 0 0 1 1 1 2 2 4 4 5 6 6
-3 -3 -3 -3 -2 -2 -2 -3 -3 -2 -2 -2 -1 -1 -2 -2 -2 -2 -2 -3 -2 -3 -3 -2 -1 -1 -1 -0 0 1 1 1 2 2 3 4 5 5
-3 -3 -3 -3 -3 -3 -3 -3 -3 -3 -3 -3 -2 -2 -2 -2 -3 -3 -3 -3 -3 -2 -3 -4 -2 -2 -2 -1 -1 -0 0 1 1 2 2 3 3 4
-4 -4 -4 -4 -5 -5 -5 -4 -4 -4 -4 -4 -3 -3 -3 -3 -3 -3 -3 -3 -3 -3 -4 -4 -4 -3 -2 -2 -2 -1 -1 0 1 1 2 2 2 3
-5 -5 -6 -6 -6 -6 -6 -6 -6 -5 -5 -5 -4 -4 -4 -4 -4 -4 -4 -4 -3 -3 -4 -4 -4 -5 -5 -2 -2 -2 -1 -1 0 1 1 2 2 2
-6 -6 -7 -7 -7 -7 -8 -7 -7 -6 -5 -5 -6 -6 -6 -5 -5 -5 -5 -5 -5 -5 -5 -5 -5 -4 -4 -4 -4 -3 -2 -1 -1 -0 1 1 1 2
-7 -7 -7 -7 -7 -8 -8 -9 -9 -9 -8 -8 -7 -7 -7 -7 -6 -6 -6 -6 -6 -6 -6 -6 -6 -6 -5 -4 -4 -4 -5 -4 -2 -1 -0 1 1 1
-7 -7 -7 -7 -8 -8 -9 -9 -9 -9 -9 -9 -9 -8 -8 -7 -7 -7 -7 -7 -6 -6 -7 -6 -6 -6 -6 -6 -6 -6 -5 -5 -3 -2 -1 -0 0 1
-8 -8 -8 -9 -9 -9 -10 -9 -9 -9 -8 -8 -8 -8 -8 -8 -8 -8 -7 -7 -7 -7 -7 -7 -7 -7 -7 -7 -7 -7 -6 -6 -5 -4 -2 -1 -1 -0
-10 -9 -9 -9 -9 -9 -9 -9 -9 -8 -8 -8 -9 -8 -8 -8 -8 -8 -8 -7 -7 -7 -7 -7 -7 -7 -7 -7 -7 -7 -7 -6 -5 -5 -4 -2 -1 -1
-10 -10 -9 -9 -9 -9 -9 -9 -9 -9 -9 -9 -9 -9 -9 -9 -8 -8 -8 -8 -8 -7 -6 -7 -7 -7 -7 -6 -6 -6 -6 -5 -5 -5 -5 -4 -2 -1
-10 -10 -9 -9 -9 -10 -10 -10 -10 -10 -9 -9 -9 -8 -8 -8 -8 -8 -8 -8 -8 -7 -6 -7 -7 -6 -6 -6 -6 -6 -6 -6 -5 -5 -4 -5 -3 -2
-11 -10 -10 -10 -10 -10 -10 -11 -10 -9 -9 -9 -8 -8 -8 -8 -8 -7 -7 -8 -8 -7 -7 -7 -7 -6 -6 -6 -6 -6 -6 -6 -6 -6 -5 -4 -3 -3
-11 -11 -11 -11 -10 -11 -11 -10 -9 -10 -9 -9 -8 -8 -8 -8 -8 -8 -7 -7 -7 -7 -7 -8 -7 -7 -7 -7 -6 -6 -6 -6 -6 -6 -6 -4 -4 -3
-11 -11 -11 -11 -11 -11 -11 -11 -11 -10 -10 -10 -9 -9 -8 -7 -8 -7 -7 -7 -7 -7 -7 -8 -8 -8 -8 -8 -7 -7 -6 -6 -6 -6 -6 -5 -5 -5
-11 -12 -12 -11 -12 -11 -11 -11 -11 -11 -10 -10 -9 -9 -8 -8 -7 -8 -8 -7 -7 -7 -7 -7 -7 -8 -8 -7 -7 -7 -7 -6 -6 -6 -6 -6 -6 -5
-12 -12 -12 -12 -12 -12 -12 -12 -12 -12 -11 -11 -10 -9 -9 -8 -8 -7 -7 -8 -7 -7 -7 -7 -7 -7 -7 -7 -7 -7 -6 -7 -6 -6 -6 -7 -6 -5
-12 -13 -13 -13 -12 -13 -13 -13 -12 -12 -12 -11 -11 -10 -10 -10 -8 -8 -7 -7 -7 -7 -7 -6 -7 -7 -6 -6 -6 -7 -7 -7 -6 -7 -7 -7 -7 -6
-13 -13 -13 -13 -13 -13 -14 -14 -13 -13 -13 -12 -12 -11 -10 -10 -9 -9 -9 -8 -7 -7 -7 -7 -7 -7 -6 -6 -6 -7 -7 -7 -7 -7 -7 -7 -7 -6
-14 -14 -13 -14 -15 -15 -15 -14 -14 -13 -13 -13 -13 -12 -11 -11 -10 -10 -10 -9 -9 -8 -8 -8 -8 -8 -8 -7 -7 -8 -7 -8 -8 -7 -7 -7 -7 -7
-15 -15 -15 -15 -15 -15 -15 -15 -14 -14 -14 -13 -13 -13 -12 -11 -11 -11 -10 -10 -9 -9 -9 -9 -9 -9 -9 -8 -8 -9 -9 -9 -9 -8 -8 -8 -7 -7
-15 -16 -16 -15 -15 -15 -15 -16 -15 -15 -14 -13 -13 -13 -13 -12 -12 -11 -11 -10 -10 -10 -10 -9 -9 -10 -10 -9 -9 -10 -10 -10 -10 -10 -9 -9 -9 -8

GFSNE_850_temp_027.txt.gz
Temp
-2 -2 -3 -3 -3 -3 -3 -3 -3 -3 -1 -0 -1 -1 -1 -1 -0 0 -0 -0 -1 -1 -1 -1 -0 0 1 2 2 3 3 3 2 3 4 4 5 6
-3 -3 -3 -3 -3 -3 -3 -4 -4 -4 -3 -2 -2 -1 -1 -0 0 0 -0 -1 -1 -2 -2 -2 -1 -1 -0 0 1 1 2 3 2 2 2 3 4 5
-3 -3 -3 -3 -3 -2 -2 -2 -3 -3 -3 -2 -1 -1 -1 -1 -0 -1 -1 -1 -1 -2 -2 -2 -2 -2 -1 -1 -1 -0 0 1 2 1 1 2 3 4
-3 -3 -2 -2 -2 -3 -3 -2 -2 -2 -2 -2 -1 -1 -1 -1 -1 -1 -1 -1 -1 -1 -1 -2 -2 -3 -3 -2 -2 -1 -1 -0 1 1 1 1 2 3
-3 -3 -3 -3 -3 -3 -3 -3 -3 -3 -3 -3 -3 -2 -2 -2 -2 -2 -2 -2 -2 -2 -2 -2 -3 -3 -3 -3 -3 -2 -2 -1 -0 0 1 0 1 2
-4 -4 -4 -5 -4 -4 -4 -4 -4 -4 -4 -4 -4 -3 -3 -3 -2 -2 -2 -2 -2 -2 -2 -2 -2 -3 -3 -4 -3 -3 -2 -1 -1 -0 0 0 0 1
-5 -5 -5 -5 -6 -6 -7 -7 -6 -6 -5 -5 -4 -4 -3 -4 -4 -4 -4 -4 -4 -4 -4 -4 -4 -4 -4 -4 -4 -4 -3 -2 -2 -1 -1 -0 0 0
-6 -6 -5 -5 -5 -6 -7 -7 -8 -8 -8 -8 -7 -6 -6 -6 -6 -6 -6 -6 -6 -5 -5 -5 -5 -5 -5 -5 -4 -5 -4 -4 -4 -3 -2 -1 -0 -0
-7 -6 -6 -6 -6 -6 -7 -8 -8 -8 -9 -9 -9 -8 -8 -7 -7 -7 -7 -6 -6 -6 -6 -6 -5 -5 -5 -5 -5 -5 -5 -5 -5 -5 -5 -3 -1 -1
-8 -8 -8 -8 -8 -9 -9 -9 -9 -8 -8 -8 -8 -8 -8 -7 -7 -7 -7 -7 -7 -6 -6 -6 -6 -6 -6 -6 -6 -6 -6 -6 -5 -5 -5 -5 -3 -2
-9 -9 -9 -9 -9 -9 -9 -9 -9 -8 -8 -8 -8 -8 -8 -8 -8 -8 -8 -8 -7 -7 -6 -6 -6 -6 -6 -6 -6 -6 -6 -6 -6 -6 -5 -5 -4 -3
-10 -10 -10 -9 -9 -9 -9 -9 -9 -9 -8 -9 -9 -8 -9 -8 -8 -8 -8 -8 -8 -7 -7 -7 -6 -6 -6 -6 -5 -5 -6 -6 -6 -6 -5 -5 -5 -5
-10 -10 -10 -9 -9 -9 -9 -9 -10 -10 -10 -10 -9 -8 -7 -7 -7 -7 -7 -8 -8 -7 -7 -7 -7 -6 -6 -6 -5 -5 -5 -5 -5 -5 -5 -5 -5 -5
-11 -10 -10 -10 -10 -10 -10 -10 -10 -10 -9 -9 -8 -8 -7 -7 -7 -7 -7 -7 -7 -7 -7 -7 -6 -6 -6 -6 -6 -5 -5 -5 -5 -5 -5 -5 -5 -5
-11 -11 -11 -11 -11 -10 -10 -11 -10 -10 -9 -9 -9 -8 -8 -7 -7 -7 -7 -7 -7 -7 -7 -7 -7 -7 -7 -6 -6 -6 -6 -5 -5 -5 -5 -6 -5 -5
-12 -11 -11 -11 -11 -11 -10 -10 -10 -10 -10 -9 -9 -8 -8 -7 -7 -7 -7 -7 -7 -7 -7 -6 -7 -7 -7 -7 -7 -6 -6 -6 -6 -6 -6 -6 -6 -5
-12 -11 -11 -12 -12 -11 -11 -11 -10 -10 -10 -10 -9 -9 -8 -8 -7 -7 -7 -7 -7 -6 -6 -6 -6 -7 -7 -7 -7 -7 -6 -6 -6 -6 -6 -6 -6 -5
-12 -12 -12 -12 -12 -12 -12 -12 -11 -11 -11 -11 -10 -10 -9 -9 -8 -7 -7 -7 -7 -6 -6 -6 -6 -7 -7 -7 -7 -7 -7 -6 -6 -6 -6 -6 -6 -5
-13 -13 -13 -13 -13 -13 -13 -12 -12 -12 -12 -11 -11 -11 -10 -10 -9 -9 -8 -7 -7 -6 -6 -6 -6 -6 -6 -6 -6 -6 -7 -7 -6 -6 -6 -6 -7 -6
-14 -14 -14 -14 -14 -14 -14 -13 -13 -12 -12 -12 -11 -11 -11 -10 -9 -9 -9 -9 -8 -8 -7 -7 -7 -7 -7 -7 -7 -7 -7 -7 -7 -7 -6 -6 -7 -6
-15 -15 -15 -15 -15 -15 -15 -14 -13 -13 -13 -12 -12 -12 -11 -10 -10 -10 -10 -9 -9 -8 -8 -8 -8 -8 -8 -7 -7 -8 -7 -8 -7 -7 -7 -6 -7 -7
-15 -15 -15 -15 -15 -15 -15 -15 -14 -14 -14 -14 -13 -12 -11 -11 -11 -10 -10 -9 -9 -9 -9 -8 -9 -9 -8 -8 -8 -8 -9 -9 -9 -8 -8 -7 -7 -7
-16 -16 -16 -16 -16 -16 -16 -16 -15 -15 -15 -15 -14 -13 -12 -12 -11 -11 -11 -10 -10 -10 -9 -9 -9 -9 -9 -9 -8 -9 -9 -9 -9 -9 -9 -9 -8 -8

GFSNE_850_temp_030.txt.gz
Temp
-2 -2 -2 -2 -2 -3 -2 -3 -3 -4 -3 -1 -2 -2 -2 -1 -1 -1 -1 -1 -1 -1 0 0 -0 0 1 2 2 2 2 2 3 3 4 4 4 5
-2 -2 -2 -3 -3 -3 -3 -3 -3 -3 -4 -2 -2 -2 -2 -3 -3 -3 -1 -0 -0 -0 -1 -1 -1 -1 -0 -0 0 1 2 1 1 2 2 2 3 3
-3 -3 -3 -3 -3 -3 -2 -2 -3 -3 -4 -3 -2 -2 -2 -2 -2 -3 -3 -2 -1 -1 -1 -1 -1 -1 -2 -1 -1 -0 1 1 1 1 1 1 2 2
-4 -4 -3 -3 -3 -3 -3 -3 -3 -3 -3 -3 -3 -2 -2 -2 -2 -2 -2 -2 -1 -1 -1 -1 -1 -2 -2 -2 -2 -2 -1 -0 0 0 0 0 1 1
-3 -4 -4 -4 -4 -4 -4 -4 -4 -4 -4 -4 -4 -3 -3 -3 -3 -2 -2 -2 -2 -2 -2 -2 -2 -2 -2 -2 -2 -3 -3 -3 -2 -1 -0 0 0 1
-4 -5 -5 -5 -5 -5 -5 -5 -5 -5 -5 -5 -5 -5 -4 -4 -3 -3 -3 -3 -3 -2 -2 -2 -2 -2 -2 -2 -3 -3 -3 -3 -3 -2 -1 -0 0 0
-5 -6 -7 -6 -5 -5 -5 -6 -6 -6 -7 -7 -7 -7 -6 -5 -5 -5 -5 -4 -4 -4 -4 -3 -3 -3 -3 -4 -4 -4 -4 -4 -4 -4 -3 -2 -1 -0
-7 -7 -7 -7 -6 -6 -7 -7 -7 -7 -8 -8 -8 -8 -8 -7 -6 -6 -6 -6 -6 -4 -4 -4 -4 -4 -4 -4 -4 -4 -4 -4 -4 -4 -4 -4 -2 -1
-9 -9 -8 -8 -8 -8 -8 -8 -8 -8 -8 -8 -8 -8 -8 -7 -7 -7 -7 -7 -7 -6 -6 -6 -6 -5 -5 -5 -5 -5 -5 -5 -5 -5 -5 -5 -4 -4
-10 -10 -9 -9 -9 -9 -8 -8 -8 -8 -8 -8 -8 -8 -8 -8 -8 -8 -7 -7 -7 -7 -7 -7 -6 -6 -6 -5 -5 -5 -5 -5 -5 -5 -5 -5 -5 -5
-10 -10 -10 -10 -9 -9 -9 -9 -9 -8 -8 -8 -8 -8 -8 -8 -8 -8 -8 -8 -8 -8 -7 -7 -6 -7 -6 -6 -5 -5 -5 -5 -5 -5 -5 -5 -5 -5
-10 -10 -10 -10 -10 -9 -9 -10 -10 -9 -9 -9 -9 -8 -8 -8 -8 -8 -8 -8 -8 -8 -8 -8 -7 -7 -7 -6 -5 -5 -5 -6 -6 -6 -5 -5 -5 -6
-11 -11 -11 -10 -10 -10 -10 -10 -10 -10 -10 -10 -9 -9 -8 -8 -7 -7 -7 -7 -7 -7 -7 -8 -8 -7 -7 -7 -6 -5 -5 -5 -5 -5 -5 -5 -5 -5
-12 -12 -11 -11 -10 -10 -10 -10 -10 -10 -10 -9 -9 -8 -8 -8 -7 -7 -7 -7 -7 -7 -7 -7 -7 -7 -7 -6 -6 -6 -5 -5 -5 -6 -6 -5 -5 -5
-12 -12 -11 -11 -11 -11 -10 -10 -10 -10 -9 -9 -9 -8 -8 -8 -7 -7 -7 -7 -7 -7 -7 -6 -7 -7 -7 -7 -7 -6 -6 -6 -5 -6 -6 -5 -6 -6
-12 -11 -11 -11 -11 -11 -11 -10 -10 -10 -10 -9 -9 -9 -8 -8 -7 -7 -7 -7 -7 -6 -6 -6 -6 -7 -6 -7 -7 -7 -6 -6 -6 -5 -6 -6 -6 -6
-12 -12 -12 -12 -12 -12 -12 -11 -11 -11 -11 -10 -10 -9 -9 -9 -8 -7 -7 -7 -6 -6 -6 -6 -6 -6 -6 -7 -7 -7 -7 -7 -6 -6 -6 -6 -5 -5
-13 -13 -13 -13 -13 -13 -13 -12 -12 -12 -11 -11 -11 -10 -10 -10 -9 -8 -8 -7 -7 -6 -6 -6 -6 -6 -6 -6 -6 -6 -6 -6 -6 -6 -6 -6 -6 -5
-13 -13 -13 -13 -13 -13 -13 -13 -13 -12 -12 -12 -11 -11 -11 -10 -9 -9 -9 -9 -8 -7 -7 -6 -6 -6 -6 -7 -6 -6 -6 -7 -7 -7 -7 -6 -6 -6
-14 -14 -14 -14 -14 -14 -14 -14 -13 -13 -13 -12 -12 -11 -11 -10 -10 -10 -9 -9 -9 -8 -8 -8 -7 -7 -7 -7 -8 -7 -7 -7 -7 -7 -7 -6 -6 -6
-15 -15 -15 -15 -15 -15 -15 -14 -14 -14 -13 -13 -12 -12 -11 -11 -10 -10 -10 -9 -9 -9 -8 -8 -8 -9 -9 -8 -7 -8 -8 -8 -8 -8 -7 -7 -6 -7
-15 -15 -15 -15 -15 -15 -15 -15 -15 -14 -14 -14 -13 -12 -12 -12 -11 -11 -10 -10 -10 -10 -9 -9 -9 -9 -8 -8 -8 -8 -9 -9 -9 -9 -8 -7 -7 -7
-14 -14 -15 -15 -14 -14 -15 -14 -14 -14 -14 -13 -13 -13 -13 -13 -12 -11 -11 -11 -11 -11 -10 -9 -9 -9 -9 -9 -9 -9 -9 -9 -9 -9 -9 -9 -8 -8

GFSNE_850_temp_036.txt.gz
Temp
-3 -3 -3 -3 -3 -4 -4 -4 -4 -4 -4 -4 -3 -3 -3 -2 -2 -2 -3 -3 -2 -1 -1 -0 -2 -2 -2 -0 1 1 1 2 2 2 2 3 4 4
-3 -3 -3 -4 -4 -4 -5 -4 -4 -4 -5 -4 -4 -4 -3 -3 -3 -3 -3 -4 -4 -3 -3 -2 -2 -2 -2 -2 -2 1 1 0 0 1 1 1 2 3
-3 -3 -4 -4 -5 -5 -5 -5 -4 -4 -5 -4 -4 -4 -4 -4 -3 -3 -3 -3 -4 -4 -3 -3 -3 -3 -3 -3 -2 -1 0 1 0 -0 -0 1 1 1
-4 -4 -4 -5 -5 -5 -5 -5 -5 -5 -5 -5 -5 -5 -5 -5 -5 -4 -4 -3 -3 -3 -4 -4 -3 -3 -3 -3 -2 -2 -2 -1 -1 -1 -1 -1 -1 -1
-5 -5 -6 -6 -6 -6 -6 -6 -6 -6 -6 -6 -6 -6 -6 -5 -5 -5 -5 -5 -4 -3 -3 -3 -3 -3 -4 -4 -4 -2 -2 -2 -2 -2 -2 -2 -2 -2
-6 -6 -7 -7 -7 -8 -8 -8 -7 -7 -7 -7 -7 -7 -6 -6 -6 -6 -6 -6 -5 -4 -4 -4 -3 -3 -3 -2 -2 -2 -2 -2 -2 -2 -3 -2 -2 -3
-7 -8 -8 -8 -9 -9 -9 -9 -8 -8 -8 -8 -8 -8 -7 -7 -7 -7 -7 -7 -6 -6 -5 -4 -4 -4 -4 -4 -3 -3 -3 -3 -3 -3 -3 -3 -3 -3
-8 -9 -9 -9 -10 -10 -10 -10 -10 -9 -9 -9 -9 -8 -8 -8 -7 -8 -8 -8 -8 -6 -6 -5 -5 -4 -4 -4 -4 -4 -4 -4 -3 -3 -3 -3 -4 -3
-9 -9 -10 -10 -10 -10 -10 -10 -10 -10 -10 -9 -9 -9 -9 -8 -8 -8 -8 -8 -8 -7 -8 -7 -6 -6 -5 -5 -5 -5 -4 -4 -4 -4 -4 -4 -4 -4
-10 -10 -10 -11 -11 -11 -11 -10 -10 -10 -9 -9 -9 -9 -9 -8 -9 -9 -8 -8 -8 -7 -7 -8 -6 -6 -6 -6 -6 -5 -5 -5 -5 -5 -5 -5 -5 -5
-10 -11 -11 -12 -12 -12 -11 -11 -10 -10 -9 -9 -9 -9 -9 -9 -9 -9 -9 -8 -8 -8 -7 -8 -6 -6 -6 -6 -6 -6 -6 -5 -5 -5 -5 -5 -5 -5
-11 -11 -12 -12 -12 -12 -11 -11 -10 -10 -10 -10 -10 -10 -9 -9 -9 -9 -9 -8 -8 -8 -6 -7 -6 -7 -7 -6 -6 -5 -6 -6 -5 -5 -5 -5 -5 -5
-13 -12 -12 -12 -11 -11 -11 -11 -11 -10 -10 -10 -10 -10 -9 -9 -9 -8 -8 -8 -8 -8 -7 -8 -7 -7 -8 -7 -7 -7 -6 -5 -6 -5 -5 -5 -5 -6
-13 -12 -12 -12 -12 -11 -11 -11 -11 -10 -10 -10 -10 -9 -9 -9 -8 -8 -8 -7 -7 -7 -7 -7 -7 -7 -7 -7 -7 -6 -6 -6 -6 -5 -5 -5 -5 -5
-13 -13 -12 -12 -12 -12 -12 -12 -11 -11 -10 -10 -10 -10 -9 -9 -8 -8 -8 -7 -7 -7 -7 -7 -7 -7 -8 -7 -8 -7 -7 -6 -6 -6 -6 -6 -6 -6
-13 -13 -13 -13 -13 -13 -13 -12 -12 -12 -12 -11 -11 -10 -10 -9 -9 -8 -8 -7 -7 -7 -7 -7 -7 -7 -7 -7 -7 -7 -7 -7 -7 -7 -7 -7 -6 -6
-13 -13 -13 -13 -13 -13 -13 -13 -13 -12 -12 -12 -11 -11 -10 -10 -9 -9 -9 -8 -8 -8 -7 -7 -7 -7 -7 -7 -7 -7 -7 -7 -7 -7 -8 -7 -6 -6
-14 -14 -14 -14 -14 -14 -14 -14 -13 -13 -13 -12 -12 -11 -11 -10 -10 -10 -9 -9 -9 -8 -8 -7 -8 -7 -7 -7 -7 -7 -7 -7 -7 -7 -7 -7 -7 -6
-14 -14 -15 -15 -15 -15 -15 -14 -14 -14 -14 -13 -12 -12 -11 -11 -10 -10 -10 -9 -9 -9 -8 -8 -8 -7 -7 -7 -7 -7 -7 -7 -7 -7 -7 -7 -7 -6
-14 -14 -14 -14 -14 -15 -15 -15 -14 -14 -14 -13 -13 -12 -11 -11 -11 -11 -10 -10 -10 -9 -9 -9 -9 -8 -9 -9 -8 -8 -8 -8 -8 -7 -8 -8 -7 -7
-13 -13 -14 -14 -14 -14 -14 -14 -14 -14 -14 -14 -13 -13 -12 -12 -12 -11 -11 -11 -11 -10 -9 -9 -9 -9 -9 -9 -8 -8 -8 -8 -8 -8 -8 -8 -8 -7
-13 -13 -13 -13 -14 -14 -14 -14 -14 -13 -13 -14 -14 -13 -13 -13 -12 -12 -12 -12 -12 -11 -11 -10 -9 -9 -9 -9 -9 -9 -9 -9 -9 -9 -9 -9 -9 -8
-13 -13 -13 -13 -13 -13 -13 -13 -14 -14 -13 -14 -14 -14 -13 -13 -13 -13 -13 -13 -12 -12 -11 -10 -10 -9 -9 -9 -9 -9 -10 -10 -10 -10 -9 -9 -9 -9

GFSNE_850_temp_042.txt.gz
Temp
-3 -3 -3 -3 -4 -4 -4 -5 -6 -7 -6 -5 -5 -4 -5 -4 -4 -4 -4 -4 -3 -3 -3 -2 -2 -1 0 1 2 3 2 1 2 3 3 4 4 4
-4 -4 -4 -4 -4 -5 -5 -6 -6 -6 -7 -6 -5 -5 -5 -5 -5 -5 -5 -5 -4 -4 -4 -3 -3 -2 -2 -1 -1 0 -0 -0 0 1 1 2 3 4
-4 -5 -5 -5 -5 -5 -6 -6 -6 -6 -7 -6 -6 -6 -6 -6 -6 -6 -6 -5 -5 -5 -4 -4 -4 -3 -3 -2 -2 -1 -0 -1 -1 -1 0 0 1 2
-5 -5 -6 -6 -6 -6 -7 -7 -7 -8 -8 -8 -7 -7 -7 -7 -7 -7 -6 -6 -6 -5 -5 -5 -4 -4 -3 -3 -3 -3 -3 -2 -2 -2 -1 -2 -1 1
-6 -6 -6 -7 -7 -8 -8 -9 -9 -9 -9 -9 -9 -9 -8 -8 -8 -7 -7 -6 -6 -6 -6 -5 -5 -4 -4 -3 -4 -4 -4 -3 -3 -3 -3 -1 -3 -2
-6 -6 -7 -8 -9 -9 -10 -10 -10 -10 -10 -10 -10 -10 -9 -9 -9 -8 -8 -7 -7 -6 -6 -6 -5 -5 -5 -5 -4 -4 -4 -4 -4 -3 -4 -4 -4 -4
-7 -7 -8 -9 -10 -10 -11 -11 -11 -11 -11 -11 -10 -10 -10 -10 -9 -9 -9 -8 -7 -7 -7 -6 -6 -5 -5 -5 -5 -4 -4 -4 -4 -4 -4 -4 -4 -4
-8 -8 -9 -9 -10 -11 -11 -11 -12 -12 -11 -11 -11 -11 -10 -10 -10 -10 -9 -9 -9 -8 -8 -7 -7 -6 -6 -5 -5 -5 -5 -4 -4 -4 -4 -4 -3 -3
-9 -9 -9 -10 -11 -11 -11 -11 -11 -11 -11 -11 -11 -10 -10 -10 -10 -10 -10 -10 -9 -9 -9 -8 -8 -7 -7 -6 -6 -5 -5 -5 -4 -4 -4 -4 -4 -4
-9 -9 -10 -11 -11 -12 -12 -12 -11 -11 -11 -11 -11 -11 -10 -10 -10 -10 -10 -10 -9 -9 -9 -9 -8 -7 -7 -7 -7 -6 -5 -5 -4 -4 -4 -4 -4 -4
-9 -10 -11 -12 -12 -12 -11 -12 -11 -11 -11 -11 -10 -10 -11 -11 -11 -11 -10 -10 -9 -9 -8 -9 -8 -7 -7 -6 -6 -6 -6 -6 -5 -4 -4 -4 -4 -4
-10 -11 -12 -12 -12 -12 -12 -12 -12 -12 -11 -11 -10 -10 -10 -10 -10 -11 -10 -10 -10 -10 -8 -9 -8 -8 -7 -6 -6 -6 -6 -6 -6 -6 -6 -5 -5 -5
-11 -12 -12 -13 -13 -13 -13 -12 -12 -12 -12 -11 -11 -10 -10 -10 -9 -9 -10 -10 -10 -9 -9 -9 -9 -8 -8 -7 -7 -7 -7 -7 -7 -7 -6 -6 -6 -6
-12 -12 -13 -14 -14 -13 -13 -13 -13 -12 -12 -12 -11 -11 -10 -10 -9 -9 -9 -9 -9 -8 -8 -8 -8 -8 -8 -8 -8 -8 -8 -7 -7 -7 -7 -7 -6 -6
-12 -12 -13 -13 -13 -13 -13 -13 -13 -13 -12 -12 -12 -11 -11 -10 -10 -9 -9 -8 -8 -8 -8 -8 -8 -8 -8 -8 -8 -8 -8 -8 -7 -7 -6 -6 -6 -6
-11 -12 -13 -13 -13 -13 -13 -13 -13 -13 -13 -13 -12 -12 -11 -10 -10 -9 -9 -8 -8 -8 -8 -8 -8 -7 -8 -8 -8 -8 -8 -8 -7 -7 -7 -7 -6 -6
-11 -12 -12 -12 -13 -12 -13 -13 -13 -13 -13 -13 -12 -12 -11 -11 -10 -10 -9 -9 -9 -8 -8 -8 -8 -7 -7 -8 -8 -8 -8 -8 -8 -8 -7 -7 -7 -7
-12 -12 -12 -12 -13 -13 -13 -13 -13 -13 -13 -13 -13 -12 -12 -11 -11 -10 -10 -10 -9 -9 -9 -8 -8 -8 -8 -8 -8 -8 -8 -8 -8 -7 -7 -7 -6 -7
-12 -12 -12 -12 -12 -13 -13 -13 -13 -13 -13 -14 -13 -13 -12 -12 -11 -11 -11 -10 -10 -10 -9 -9 -9 -8 -8 -8 -8 -8 -8 -8 -8 -7 -7 -7 -7 -7
-12 -12 -12 -12 -13 -13 -13 -13 -13 -13 -13 -13 -13 -13 -13 -12 -12 -12 -12 -11 -11 -11 -10 -10 -10 -9 -9 -9 -10 -9 -9 -9 -8 -8 -8 -8 -7 -7
-12 -12 -12 -12 -12 -13 -13 -13 -13 -13 -13 -14 -14 -13 -13 -13 -13 -13 -13 -13 -12 -12 -11 -11 -10 -10 -10 -10 -9 -9 -9 -9 -9 -9 -8 -8 -8 -8
-12 -12 -12 -12 -12 -13 -13 -13 -13 -13 -13 -13 -14 -14 -14 -14 -13 -13 -13 -13 -13 -12 -12 -11 -11 -10 -10 -10 -10 -9 -9 -9 -9 -9 -9 -9 -9 -9
-11 -12 -12 -12 -12 -13 -13 -13 -13 -13 -13 -13 -13 -13 -13 -13 -14 -14 -13 -13 -13 -13 -12 -11 -11 -10 -10 -10 -10 -9 -9 -10 -10 -10 -10 -10 -10 -10

GFSNE_850_temp_045.txt.gz
Temp
-3 -3 -4 -4 -4 -4 -5 -6 -6 -5 -4 -4 -4 -5 -5 -6 -6 -5 -5 -5 -4 -4 -4 -4 -3 -3 -2 -1 -0 1 2 3 4 5 3 3 4 4
-4 -4 -4 -5 -5 -5 -6 -6 -7 -6 -6 -5 -5 -6 -6 -7 -6 -6 -6 -6 -5 -5 -5 -4 -4 -3 -3 -2 -1 -0 0 3 3 3 2 2 3 3
-4 -5 -5 -5 -6 -6 -6 -7 -8 -8 -7 -7 -7 -7 -7 -7 -7 -7 -6 -6 -6 -6 -5 -5 -5 -4 -4 -3 -2 -1 -1 -0 -1 1 -0 1 2 2
-5 -5 -6 -6 -6 -7 -8 -8 -9 -9 -9 -8 -8 -8 -7 -8 -8 -7 -7 -6 -6 -6 -6 -6 -5 -5 -4 -4 -3 -3 -2 -1 -2 -2 -1 0 1 1
-6 -6 -6 -7 -8 -8 -9 -9 -9 -9 -9 -9 -9 -8 -8 -9 -8 -8 -7 -7 -7 -7 -7 -6 -6 -5 -5 -5 -4 -4 -3 -3 -2 -2 -1 -2 1 1
-6 -6 -7 -8 -9 -9 -10 -10 -10 -10 -10 -10 -9 -9 -9 -9 -9 -9 -8 -8 -7 -7 -8 -7 -6 -6 -5 -5 -5 -5 -5 -4 -3 -3 -3 -2 -1 -2
-7 -7 -7 -8 -8 -9 -11 -10 -10 -11 -11 -10 -10 -10 -10 -9 -9 -9 -9 -9 -8 -8 -8 -8 -7 -7 -5 -5 -5 -5 -5 -5 -4 -4 -3 -3 -3 -2
-7 -7 -8 -8 -10 -10 -11 -11 -12 -12 -11 -11 -10 -10 -10 -9 -10 -10 -10 -9 -9 -8 -8 -8 -8 -8 -7 -7 -6 -5 -5 -5 -5 -5 -4 -4 -4 -4
-8 -8 -8 -10 -11 -12 -12 -12 -11 -11 -11 -11 -11 -11 -10 -10 -10 -10 -9 -10 -9 -9 -9 -9 -8 -8 -8 -8 -6 -6 -5 -5 -4 -4 -5 -4 -4 -4
-8 -9 -10 -12 -12 -12 -12 -11 -12 -11 -11 -11 -11 -11 -10 -10 -10 -10 -10 -10 -10 -10 -10 -10 -9 -8 -8 -8 -7 -6 -6 -5 -5 -5 -4 -4 -4 -4
-9 -10 -12 -13 -13 -13 -12 -12 -12 -12 -11 -12 -11 -11 -10 -10 -10 -10 -10 -10 -10 -9 -9 -9 -9 -8 -8 -7 -7 -6 -6 -6 -5 -5 -5 -5 -4 -4
-11 -12 -13 -13 -13 -13 -13 -13 -13 -12 -12 -12 -12 -11 -11 -10 -10 -10 -10 -10 -10 -9 -9 -9 -8 -8 -8 -7 -7 -7 -7 -6 -6 -5 -5 -5 -5 -5
-12 -12 -13 -12 -14 -14 -14 -14 -13 -13 -12 -13 -12 -12 -11 -11 -10 -9 -9 -10 -10 -10 -9 -10 -9 -9 -8 -7 -8 -7 -7 -6 -6 -6 -6 -6 -5 -5
-11 -12 -12 -12 -12 -13 -13 -14 -13 -13 -13 -13 -13 -12 -12 -11 -10 -10 -9 -9 -9 -9 -9 -9 -9 -9 -8 -8 -7 -8 -8 -7 -7 -7 -7 -7 -6 -6
-11 -11 -11 -12 -12 -13 -13 -13 -13 -13 -13 -13 -13 -13 -12 -11 -10 -10 -9 -9 -8 -8 -8 -8 -8 -8 -8 -8 -8 -8 -8 -8 -8 -8 -8 -7 -7 -6
-11 -11 -11 -12 -12 -12 -12 -12 -13 -13 -13 -13 -13 -12 -11 -11 -10 -10 -9 -9 -8 -8 -8 -8 -8 -8 -8 -8 -8 -8 -8 -8 -8 -8 -8 -7 -7 -7
-11 -11 -11 -11 -11 -12 -12 -12 -13 -13 -13 -13 -13 -12 -12 -11 -11 -10 -10 -9 -9 -8 -8 -8 -8 -8 -7 -8 -7 -8 -8 -8 -8 -8 -8 -7 -7 -7
-11 -11 -11 -11 -12 -12 -12 -12 -13 -13 -13 -13 -13 -13 -12 -12 -11 -11 -11 -10 -10 -10 -9 -8 -8 -8 -8 -8 -8 -8 -8 -8 -8 -8 -7 -7 -7 -7
-11 -11 -11 -12 -12 -12 -12 -13 -13 -13 -13 -13 -13 -13 -13 -13 -12 -12 -12 -12 -11 -11 -11 -9 -9 -9 -8 -8 -8 -8 -9 -8 -8 -8 -8 -7 -7 -8
-11 -12 -11 -12 -12 -12 -12 -12 -13 -13 -13 -13 -13 -13 -13 -13 -13 -13 -13 -12 -12 -12 -11 -11 -10 -10 -10 -9 -9 -9 -9 -9 -8 -8 -8 -7 -7 -7
-11 -12 -12 -12 -12 -12 -12 -12 -13 -13 -13 -13 -13 -13 -13 -13 -13 -13 -13 -13 -12 -13 -12 -12 -11 -10 -10 -10 -9 -9 -9 -9 -9 -9 -8 -8 -9 -9
-11 -11 -12 -12 -12 -12 -12 -13 -13 -13 -13 -13 -13 -13 -14 -14 -14 -14 -14 -14 -13 -13 -12 -11 -11 -10 -10 -10 -9 -9 -9 -9 -9 -9 -9 -9 -9 -9
-11 -11 -11 -11 -12 -12 -12 -12 -13 -13 -13 -13 -13 -13 -13 -13 -14 -14 -14 -14 -13 -13 -12 -11 -11 -10 -10 -10 -10 -10 -10 -10 -10 -10 -10 -10 -10 -10

GFSNE_850_temp_048.txt.gz
Temp
-2 -3 -3 -3 -3 -3 -3 -3 -4 -4 -3 -2 -2 -2 -3 -3 -3 -4 -4 -5 -5 -5 -4 -5 -5 -4 -4 -3 -2 -1 -0 0 2 4 5 5 6 5
-3 -3 -3 -3 -4 -4 -4 -4 -4 -4 -4 -4 -3 -4 -4 -4 -4 -5 -5 -5 -5 -5 -5 -5 -5 -5 -4 -4 -3 -2 -1 -0 1 3 3 4 6 5
-3 -4 -4 -4 -4 -4 -5 -5 -5 -5 -5 -4 -5 -5 -5 -5 -5 -6 -6 -5 -4 -4 -5 -5 -5 -5 -5 -5 -4 -3 -2 -1 -1 1 3 3 3 4
-4 -4 -5 -5 -5 -5 -5 -5 -5 -6 -6 -6 -5 -6 -6 -6 -6 -6 -6 -6 -5 -4 -5 -6 -6 -6 -5 -5 -5 -4 -3 -2 -2 -1 1 3 1 3
-5 -5 -5 -6 -6 -6 -6 -6 -6 -6 -7 -7 -7 -7 -7 -7 -7 -7 -7 -7 -6 -6 -6 -6 -6 -6 -6 -5 -5 -4 -4 -3 -3 -2 -2 -1 -1 1
-6 -6 -6 -7 -7 -7 -8 -8 -7 -7 -7 -9 -8 -8 -8 -8 -8 -7 -7 -7 -7 -6 -6 -6 -6 -6 -6 -6 -5 -5 -4 -4 -4 -3 -2 -2 -2 -2
-6 -7 -7 -8 -8 -9 -10 -10 -9 -9 -9 -9 -9 -9 -9 -8 -8 -8 -8 -7 -7 -7 -7 -7 -6 -6 -5 -5 -6 -5 -5 -4 -4 -4 -3 -3 -2 -2
-7 -7 -8 -9 -9 -10 -11 -11 -11 -11 -11 -10 -10 -9 -9 -8 -8 -8 -8 -8 -8 -7 -8 -8 -7 -6 -6 -5 -5 -6 -5 -5 -4 -4 -4 -3 -3 -3
-8 -8 -8 -9 -10 -10 -11 -11 -11 -10 -10 -11 -10 -10 -9 -9 -9 -9 -8 -8 -8 -8 -8 -8 -8 -7 -7 -6 -6 -6 -6 -5 -5 -5 -4 -4 -4 -4
-9 -9 -9 -10 -10 -12 -12 -11 -11 -11 -11 -11 -10 -10 -10 -10 -10 -10 -9 -9 -9 -8 -8 -8 -8 -8 -7 -7 -7 -7 -6 -6 -5 -5 -5 -5 -5 -5
-9 -9 -10 -11 -11 -12 -13 -12 -11 -11 -11 -11 -11 -11 -11 -10 -10 -9 -10 -9 -9 -8 -8 -8 -8 -8 -7 -7 -7 -7 -6 -6 -6 -5 -5 -5 -5 -5
-10 -10 -10 -11 -11 -13 -13 -13 -12 -12 -12 -12 -12 -11 -11 -10 -10 -9 -9 -9 -8 -8 -7 -8 -7 -7 -7 -6 -6 -7 -7 -6 -6 -5 -5 -5 -5 -5
-10 -10 -10 -11 -11 -12 -13 -13 -13 -14 -13 -12 -12 -11 -11 -10 -10 -10 -10 -9 -9 -8 -8 -8 -7 -7 -7 -7 -6 -7 -6 -7 -6 -6 -5 -5 -5 -5
-11 -11 -11 -11 -11 -11 -12 -12 -12 -13 -13 -13 -12 -12 -11 -11 -11 -11 -10 -9 -9 -8 -8 -8 -9 -8 -7 -7 -6 -7 -7 -6 -6 -7 -6 -6 -6 -5
-11 -10 -10 -10 -11 -12 -13 -12 -13 -13 -14 -13 -13 -12 -12 -12 -11 -10 -9 -9 -8 -8 -8 -8 -9 -8 -8 -7 -6 -6 -7 -7 -7 -7 -7 -7 -7 -7
-11 -12 -11 -11 -11 -12 -13 -13 -14 -14 -14 -14 -13 -13 -13 -12 -11 -10 -10 -9 -8 -7 -8 -8 -8 -8 -8 -8 -7 -7 -7 -7 -7 -7 -7 -7 -6 -6
-11 -12 -12 -12 -13 -12 -13 -13 -13 -14 -14 -14 -14 -13 -13 -12 -12 -11 -10 -10 -9 -8 -8 -8 -8 -8 -8 -7 -7 -6 -7 -7 -7 -7 -7 -7 -7 -7
-11 -12 -12 -12 -13 -13 -13 -13 -13 -14 -13 -14 -14 -14 -14 -13 -13 -12 -11 -11 -10 -9 -9 -9 -8 -7 -7 -7 -7 -7 -7 -7 -7 -7 -7 -7 -7 -7
-12 -11 -11 -12 -13 -13 -13 -13 -13 -14 -12 -13 -15 -15 -14 -14 -13 -12 -12 -12 -11 -10 -10 -9 -9 -8 -7 -6 -8 -7 -7 -8 -8 -8 -8 -8 -7 -8
-11 -11 -11 -12 -13 -13 -13 -13 -13 -13 -13 -13 -14 -15 -15 -15 -13 -13 -13 -13 -12 -11 -10 -9 -9 -9 -9 -9 -9 -9 -8 -8 -9 -8 -9 -8 -8 -8
-10 -11 -11 -12 -12 -13 -13 -13 -12 -13 -12 -13 -13 -14 -15 -15 -14 -14 -13 -13 -13 -12 -11 -11 -11 -10 -9 -9 -9 -9 -9 -9 -9 -9 -9 -9 -8 -8
-10 -11 -11 -12 -12 -13 -13 -13 -13 -14 -14 -13 -13 -14 -15 -15 -15 -15 -14 -14 -13 -13 -12 -12 -11 -10 -10 -9 -8 -8 -10 -9 -9 -9 -9 -9 -9 -8
-10 -11 -11 -12 -12 -13 -13 -13 -13 -13 -13 -13 -13 -14 -13 -14 -14 -15 -15 -14 -14 -14 -13 -12 -11 -10 -10 -10 -9 -9 -9 -10 -10 -10 -10 -9 -9 -9